Dewpoint
41 41 39 39 39 40 39 38 36 41 42 43 45 46 46 45 45 47 49 51 53 55 58 58 58 56 55
40 39 39 39 39 36 37 34 31 34 35 37 40 41 42 43 43 44 45 46 47 50 52 53 54 54 53
38 39 39 36 34 32 30 29 27 30 33 34 35 35 36 38 39 39 40 43 45 45 45 47 48 48 49
38 37 36 33 29 26 25 26 24 23 26 28 31 34 34 33 32 33 35 38 40 42 42 42 42 43 44
30 31 27 25 24 25 23 24 24 23 21 22 22 22 25 28 31 32 32 33 34 36 38 40 40 40 40
24 25 22 24 24 25 24 23 22 24 21 20 23 24 25 27 31 33 32 33 32 32 33 34 34 36 37
22 22 23 25 26 25 24 23 22 23 21 18 25 24 25 26 31 33 33 33 33 32 32 32 31 31 31
26 26 26 26 26 26 24 24 24 24 23 19 24 24 25 26 32 31 31 31 32 34 34 34 34 33 32
27 27 28 28 27 25 24 21 22 23 24 23 22 22 23 25 26 29 31 32 31 32 31 31 33 35 32
20 23 22 24 26 23 24 16 18 21 24 19 20 19 16 22 24 24 25 28 29 30 31 31 32 30 29
16 16 20 23 25 26 25 19 15 16 27 19 8 15 13 17 22 23 22 23 23 26 27 29 30 30 28
17 20 21 24 25 26 26 26 24 21 24 19 13 14 20 17 15 21 19 20 20 22 22 27 28 28 28
21 23 23 24 24 24 26 25 19 23 27 27 26 25 24 22 19 20 19 20 21 15 18 21 21 22 21
22 24 25 24 25 25 22 16 14 18 21 14 16 23 16 16 14 19 15 15 15 16 20 21 23 24 24
23 24 26 26 25 22 19 11 12 9 13 18 22 21 19 15 17 19 19 16 17 18 17 16 21 23 25
24 24 24 24 21 17 14 12 14 13 9 10 11 15 17 21 25 22 20 15 15 17 18 16 19 21 24
23 22 22 20 23 18 14 16 14 12 11 8 6 8 9 16 19 26 18 11 13 16 19 18 19 21 22
Lifted_Index
7 7 8 9 9 9 10 10 11 11 11 11 11 10 10 9 8 7 6 5 4 3 1 1 2 2 2
8 8 8 9 9 9 10 11 11 12 12 12 12 11 11 10 9 8 7 6 5 3 2 2 2 2 2
8 8 9 9 9 10 11 12 13 14 15 15 15 14 13 12 11 9 9 8 6 5 4 4 4 3 3
9 9 10 11 11 12 13 14 16 17 18 18 18 17 17 15 14 12 11 9 8 7 7 6 6 6 6
10 11 12 12 13 14 14 15 16 18 19 19 19 19 19 19 18 16 14 13 11 10 9 8 8 8 8
12 12 12 13 14 14 14 14 15 17 18 18 19 19 19 20 20 19 18 16 15 13 12 12 11 11 10
13 13 14 15 15 15 15 15 15 17 18 17 18 19 19 20 19 19 19 18 18 17 16 15 14 13 13
15 15 16 17 17 17 16 15 16 17 18 17 17 18 18 19 19 19 18 18 18 18 18 17 16 16 16
16 17 17 18 18 18 16 15 15 16 17 17 17 17 17 18 18 18 18 18 18 18 17 17 17 17 17
16 17 17 18 19 18 17 15 15 15 17 17 17 16 16 17 17 18 18 18 18 18 17 17 17 17 17
14 15 16 17 18 19 19 18 17 17 18 18 17 16 16 16 17 17 18 18 18 18 17 17 17 17 17
13 13 14 16 18 19 20 20 19 19 19 19 18 17 16 15 16 17 18 18 18 17 17 17 17 17 17
12 13 14 15 17 18 19 20 20 20 20 20 19 17 16 15 15 16 17 17 18 18 17 17 17 17 17
13 13 14 15 16 17 18 18 18 18 19 20 19 18 17 16 15 15 16 16 17 17 17 17 17 17 17
13 13 13 13 14 16 16 16 16 16 17 18 19 18 17 16 16 16 16 16 17 17 17 16 16 17 17
14 13 13 13 14 15 15 15 15 15 16 17 18 17 16 15 16 16 16 16 16 17 17 16 16 16 16
14 13 12 14 14 14 15 14 14 15 16 17 17 16 14 14 15 16 16 16 16 17 17 16 16 16 16